CAPE
1811 2046 2274 2203 2030 1876 1753 1557 1516 1381 1253 1027 1034 865 783 694 831 618 575 647 977 547 713 694 964 944 1209 872 731 773 262 610 930 875 947 792 720 551 622 950 428 790 1106 849 976 455 283 353 496 734 736 342 731 686 254 300 263 415 541 834 797 526 506
1893 1997 2070 2048 2138 2116 1808 1625 1642 1476 1117 921 959 840 685 671 666 573 600 679 900 517 372 1013 654 1222 1183 921 923 364 459 782 802 696 753 695 830 711 700 827 778 578 464 819 824 726 418 391 171 191 504 664 646 463 337 485 372 491 346 547 375 281 181
1867 1820 1929 1903 2032 2194 1844 1513 1574 1584 1442 1100 890 819 837 670 786 537 815 783 426 932 910 517 662 1070 1227 687 1364 1332 1336 1197 1031 886 1026 717 829 887 819 520 456 820 250 282 647 584 555 588 326 273 1017 371 482 640 435 405 623 546 410 349 155 192 104
1815 1810 2036 1936 1849 1910 2055 1874 1680 1505 1358 1298 1237 831 1051 768 691 724 927 957 930 563 704 1056 1013 1032 1219 1311 1277 1445 1565 1451 1080 1066 888 956 1047 406 387 747 706 820 579 468 465 452 584 523 462 314 310 516 1082 532 428 184 253 410 282 291 164 52 15
1752 1765 1801 1753 2060 1989 1778 1597 1563 1432 1353 1038 819 777 882 1078 1112 1032 972 663 1046 1182 1365 803 549 862 1072 1152 1261 1254 1296 1281 1272 1301 970 1140 980 360 611 716 758 562 606 772 736 405 540 573 471 429 298 141 391 292 126 180 110 64 66 78 14 3 4
1811 1806 1684 1725 1964 1394 1566 1402 1322 1566 1102 1097 967 907 1019 809 1062 1528 1092 935 1099 1213 1226 724 769 1010 592 875 1170 1077 945 1121 1315 1189 1000 349 409 742 1126 1185 826 563 523 1023 754 312 456 562 537 517 450 457 565 468 229 154 106 40 42 2 5 1 4
1686 1721 1784 1537 1861 1800 1657 1476 1840 1396 1186 990 979 847 983 994 734 703 843 807 1013 1003 1079 642 494 516 648 514 586 603 1061 1160 863 461 1011 1358 898 990 1258 975 996 482 593 820 465 961 638 698 564 615 590 501 408 262 267 317 262 172 33 1 0 0 3
1594 1654 1618 1641 1878 1404 1503 1978 1984 1364 1172 1114 986 1014 906 1008 622 726 748 600 819 1279 1057 456 454 645 725 622 650 746 405 654 452 956 547 665 1012 999 827 523 660 808 592 449 622 703 617 680 614 658 637 554 381 371 310 252 330 314 140 20 1 0 5
1566 1544 1543 1585 1736 1340 1504 1498 1601 1470 1195 1193 1052 861 871 895 799 915 566 698 1195 1397 583 489 516 515 674 696 798 988 467 425 374 611 603 1247 1060 1010 1255 1119 546 513 665 620 654 709 576 590 662 742 669 561 540 457 376 442 354 259 171 76 19 8 3
1269 1233 1283 1426 1466 1172 1205 1335 1442 1570 1412 1190 1053 919 897 909 965 717 582 580 690 771 587 658 1058 652 605 1118 613 438 337 402 534 528 998 1014 1113 1099 686 640 914 780 1116 876 772 742 827 684 637 741 622 928 606 355 302 493 432 372 206 141 93 7 0
1205 1241 1443 1314 1113 1144 1178 1068 1359 1631 1624 1420 1010 825 996 1080 988 975 974 891 743 1368 1375 1166 1032 536 951 413 450 538 532 629 553 539 611 982 987 938 1004 1115 702 601 858 1020 972 1036 988 976 823 802 666 355 808 433 517 309 429 452 334 329 225 30 0
1300 1240 1284 1291 1355 1276 1330 1220 1254 1449 1407 1240 1067 915 909 876 1036 1212 901 734 829 677 990 1192 1170 955 1085 701 612 538 335 499 635 932 679 1000 1048 929 285 600 830 1069 973 1048 1098 1172 1169 1115 1008 856 611 442 509 774 572 402 398 452 476 370 349 77 0
933 711 1081 1396 1692 971 1201 1192 940 937 1123 955 1050 973 783 804 970 1218 998 752 701 749 1140 760 983 900 842 451 309 379 714 767 790 624 586 316 722 720 894 871 301 821 992 1071 1092 1040 1136 1084 1063 795 638 691 753 855 490 280 240 636 549 421 250 41 2
1040 1160 1177 1292 1332 1020 932 875 920 840 838 987 921 853 592 725 911 877 813 613 806 609 512 715 744 698 943 1210 686 696 890 794 534 1027 926 454 724 835 1039 593 760 821 985 925 817 983 965 991 1096 914 766 618 652 750 616 515 382 534 421 399 261 7 0
1152 1003 918 1040 1126 967 914 985 1014 736 935 1000 884 744 724 735 922 1013 1197 1113 570 668 514 779 548 537 779 1126 1186 1359 1308 775 597 648 860 757 1025 865 888 714 543 732 770 866 860 716 864 904 865 841 746 536 1054 946 705 358 251 227 397 197 66 1 0
901 984 1062 913 552 832 863 918 929 908 953 1064 984 744 887 875 912 1082 1162 1078 1106 754 697 740 490 356 712 943 1025 1170 1044 919 457 571 802 730 775 775 954 883 837 919 886 844 938 813 840 888 708 499 574 506 346 453 554 418 330 169 121 72 20 0 0
654 584 934 599 667 909 821 814 784 868 939 1004 754 979 1021 1016 996 892 1205 1023 866 832 823 870 473 594 730 885 1056 1182 885 574 370 489 690 749 679 890 1183 1030 989 1077 1064 948 994 970 974 902 706 450 430 344 469 436 682 636 433 67 31 12 0 0 0
636 683 498 593 580 772 684 668 690 785 1011 1020 1006 983 904 1019 1026 1079 890 893 1035 767 681 798 737 641 797 822 1039 1216 1168 646 496 1011 798 640 926 1092 1123 1080 1060 1188 1034 1005 1126 1096 882 1093 656 504 452 474 554 703 789 682 473 138 23 0 1 0 0
464 550 546 527 619 532 483 700 716 585 655 821 825 875 900 950 998 1210 993 812 870 950 826 711 516 776 651 575 748 715 674 416 349 524 1084 1106 1062 1167 1221 1166 1183 1124 1156 1107 1245 1077 1061 1150 679 694 641 556 544 736 795 701 526 217 61 9 0 0 0
395 411 466 530 744 555 533 510 575 602 510 682 899 862 798 944 993 1251 786 731 635 621 760 1056 478 603 628 741 676 660 592 586 780 1074 1325 1193 1165 1189 1263 1107 1270 1159 1226 1228 1203 1274 1323 1034 973 867 868 738 652 758 879 635 333 219 131 84 7 0 0
204 315 495 514 445 558 471 470 462 609 595 480 719 554 587 1084 737 704 774 955 688 864 950 664 672 565 581 662 734 587 754 1392 1196 1321 1500 1297 1298 1330 1210 1239 1215 1121 1062 1129 1376 1432 1359 1194 1087 1167 1031 1098 819 818 778 580 404 380 313 254 105 36 24
166 171 274 336 329 276 410 564 583 551 550 674 441 340 619 447 925 736 634 585 770 888 873 776 398 388 438 386 740 1275 1572 1230 1410 1578 1591 1463 1484 1329 1058 1006 1157 1012 832 584 623 808 1140 875 1124 1140 1006 1047 744 862 699 648 471 426 400 334 182 106 46
175 232 244 292 276 272 250 269 311 357 411 462 666 505 406 460 574 502 442 436 723 714 527 723 581 619 316 545 967 1319 1403 1589 1604 1641 1568 1634 1624 1463 1386 1415 782 650 743 754 674 683 802 732 578 881 1323 1341 946 802 739 660 490 423 436 330 298 204 157
144 240 278 49 298 279 248 230 174 272 375 432 551 425 410 502 378 366 349 281 488 746 695 496 240 533 571 379 452 820 1231 1499 1514 1561 1625 1658 1625 1526 1274 646 465 416 377 324 242 304 424 382 486 584 673 820 1023 1795 1209 876 610 604 444 308 327 342 281
159 183 30 20 20 18 193 105 99 96 139 183 161 233 379 390 353 391 301 219 345 441 793 296 122 260 446 550 490 484 592 886 1312 1347 1348 1353 1313 953 660 543 378 343 258 182 180 102 0 0 0 0 116 362 509 579 598 1090 946 841 719 480 465 436 405
79 32 22 66 86 11 68 108 92 58 58 154 143 130 247 361 322 271 159 100 164 216 315 144 200 214 256 370 509 441 274 396 455 561 788 644 960 857 673 586 593 384 169 26 8 5 0 0 0 0 0 0 0 0 274 391 366 580 551 507 493 379 296
3 3 2 55 49 23 29 31 73 114 143 166 148 188 365 302 269 229 115 50 70 24 0 114 115 76 150 193 303 370 263 419 456 502 596 735 950 929 791 694 474 175 49 81 73 30 7 1 18 100 177 109 73 79 0 0 1 23 430 498 397 564 479
4 4 2 10 37 48 26 35 26 66 111 140 196 218 208 226 143 34 43 31 24 24 47 110 130 119 115 135 157 290 399 541 476 526 684 926 892 765 679 496 330 269 272 278 217 147 252 339 480 503 393 247 74 0 0 0 49 202 416 520 571 527 368
5 5 3 1 46 31 38 24 12 4 14 70 95 158 138 75 20 23 18 10 39 62 68 78 109 107 86 83 123 573 942 903 825 717 610 740 618 606 405 331 405 457 473 511 176 250 370 454 450 442 303 147 24 0 0 0 0 0 32 30 0 0 0
4 4 4 2 1 0 2 20 22 9 2 10 29 49 53 32 9 22 22 15 20 28 2 75 74 0 0 2 207 520 850 737 746 553 363 314 334 307 328 437 654 621 521 289 132 180 202 284 414 387 339 235 88 0 0 0 0 0 0 0 0 0 0
3 3 4 3 2 1 1 7 2 2 0 4 9 11 27 44 30 11 34 23 27 13 1 31 48 0 0 0 332 816 644 651 553 367 230 124 94 23 137 229 264 321 210 50 0 0 191 572 490 392 365 229 110 28 0 0 0 0 0 0 0 0 0
2 4 3 2 3 2 2 1 1 3 6 28 36 32 33 50 51 63 52 39 28 31 27 51 65 46 0 105 464 565 368 324 204 198 190 91 16 61 40 53 49 29 8 0 0 0 143 344 506 293 299 217 70 13 1 0 0 0 0 0 0 0 0
3 5 5 4 2 2 2 1 1 11 13 17 14 14 17 29 45 66 64 64 27 6 23 47 69 81 30 36 93 380 186 157 68 46 142 134 61 54 2 10 14 0 25 13 6 0 28 202 348 303 206 117 7 0 0 4 22 0 0 0 3 2 2
1 2 3 2 3 2 3 2 1 5 7 4 2 0 0 15 27 35 36 55 57 42 22 32 9 83 12 0 0 9 95 102 36 0 72 143 105 70 0 8 18 29 22 19 4 3 1 2 0 14 2 4 1 0 0 2 0 0 6 6 4 1 0
4 2 1 2 9 3 3 2 2 3 0 1 1 0 0 13 23 35 42 3 42 57 57 48 38 0 58 59 76 84 81 72 69 0 0 95 94 55 1 2 1 0 0 10 0 18 20 10 3 1 1 0 0 1 1 0 0 0 0 0 0 0 0
0 2 4 1 1 1 1 1 1 1 2 2 1 2 8 14 26 34 44 47 52 52 59 73 76 69 72 79 81 104 34 0 0 0 0 0 1 2 1 0 1 2 6 6 6 6 2 0 0 2 1 0 0 0 0 0 0 7 3 0 0 0 0
0 0 1 3 1 4 2 2 0 0 4 1 1 3 11 20 32 45 52 55 58 62 68 69 64 77 75 81 101 96 88 64 4 3 8 4 2 0 3 1 1 1 3 4 12 9 5 8 10 7 4 0 0 0 0 0 0 0 0 0 0 0 0
Wind_Speed
24 26 27 27 27 25 24 21 19 17 15 13 11 11 12 12 14 15 13 11 12 11 11 11 13 13 13 14 12 17 13 8 14 13 13 13 11 10 7 8 9 11 12 11 12 11 13 14 16 17 16 17 16 14 10 15 18 19 17 15 16 15 14
22 25 27 27 26 25 23 22 20 19 17 15 13 9 9 11 14 14 14 13 13 13 8 10 12 14 13 13 12 15 7 12 15 13 14 13 11 10 12 9 9 10 11 12 12 11 10 15 17 17 17 19 18 19 17 16 21 18 17 17 16 15 15
24 25 25 26 25 23 21 21 20 21 18 16 14 11 9 8 11 13 14 13 13 14 13 13 12 14 13 12 12 12 12 14 14 14 13 11 13 10 13 11 11 11 13 11 14 13 13 11 16 17 20 19 18 18 19 19 20 19 18 18 17 15 16
22 24 25 25 25 23 22 21 20 21 20 16 13 12 10 8 9 11 14 15 16 16 15 18 18 16 15 14 13 12 13 12 13 15 13 11 16 14 9 11 13 13 12 11 16 15 14 14 13 19 19 18 18 21 19 20 19 19 19 18 17 nan nan
24 25 24 26 26 23 23 23 21 21 20 18 16 15 12 11 10 11 12 13 15 16 19 20 19 16 18 15 13 13 13 12 12 14 14 12 15 11 9 14 16 17 12 14 15 18 14 16 13 16 16 20 18 20 21 21 19 nan nan nan nan nan nan
24 25 26 27 29 25 26 26 24 22 21 20 18 17 14 10 11 12 11 12 12 14 20 21 17 18 17 14 14 13 12 12 12 14 15 13 11 10 15 14 22 18 12 15 13 15 16 18 15 16 17 15 17 21 21 20 19 nan nan nan nan nan nan
25 25 27 30 33 29 27 26 25 21 21 20 21 21 15 12 11 10 9 9 10 13 20 17 14 14 14 14 14 13 13 15 13 12 13 13 15 14 19 17 16 16 15 11 15 18 18 18 17 17 17 16 17 18 20 17 18 17 nan nan nan nan nan
26 26 27 31 35 30 26 26 26 22 21 22 23 24 18 14 11 11 9 10 11 16 22 18 13 13 13 15 15 16 16 16 13 13 16 13 17 18 17 14 16 19 18 15 19 16 19 17 18 18 16 17 17 18 18 16 17 13 20 nan nan nan nan
27 26 27 31 34 30 26 27 27 23 21 23 23 23 20 15 13 13 14 13 15 17 21 17 16 14 13 13 17 22 20 15 10 15 15 20 19 18 16 15 19 14 18 18 17 17 18 18 18 18 15 15 17 18 18 17 16 17 19 nan nan nan nan
31 30 29 31 31 26 24 27 27 24 22 23 23 22 21 18 17 19 17 17 14 17 20 17 19 21 14 18 17 19 17 11 16 18 20 22 20 18 17 12 18 15 19 18 16 19 17 18 17 17 13 14 14 19 18 18 17 19 19 18 nan nan nan
30 31 32 32 29 24 24 26 26 25 24 23 23 22 20 20 19 19 19 21 19 22 23 23 21 17 24 21 15 19 17 19 21 19 20 21 20 16 17 15 20 12 21 18 18 18 19 17 16 16 12 15 18 13 18 16 20 17 19 16 18 nan nan
30 31 32 31 29 24 24 25 25 23 22 22 23 22 22 20 21 21 22 23 22 23 23 25 24 21 24 24 23 19 18 19 20 21 23 21 19 19 14 13 17 16 22 18 19 18 19 17 16 16 14 16 17 16 19 14 20 19 17 17 17 nan nan
29 27 29 29 27 23 23 24 22 21 21 22 23 23 22 21 20 22 23 25 23 23 27 24 24 23 24 22 21 19 19 21 23 23 21 24 15 19 14 19 15 15 21 18 18 18 18 17 17 16 17 16 18 16 18 15 20 21 16 18 20 nan nan
27 26 25 26 24 22 21 21 22 22 22 23 23 22 21 21 20 21 25 25 26 27 27 25 23 24 23 22 23 18 21 20 22 24 24 21 20 18 18 14 20 16 21 17 18 18 17 19 18 16 17 15 18 18 17 15 20 22 21 20 22 nan nan
26 22 21 21 19 19 18 20 22 23 22 23 23 22 21 21 19 20 23 25 23 25 23 23 24 23 23 22 22 23 21 21 19 23 21 21 21 18 19 14 17 17 18 16 18 17 18 19 18 17 16 16 19 19 16 16 22 22 24 23 nan nan nan
19 17 14 14 14 17 18 18 22 22 23 23 23 23 21 19 18 19 22 23 22 21 20 21 24 23 21 20 20 20 22 20 23 18 22 20 21 19 18 15 16 17 17 15 17 15 21 19 17 15 18 15 19 20 20 18 21 24 26 nan nan nan nan
8 10 11 11 12 15 16 19 20 20 20 21 21 22 21 19 19 18 20 21 21 18 18 21 23 22 20 20 19 19 20 21 19 16 22 21 21 19 18 16 16 17 16 15 17 17 20 19 16 17 18 19 21 22 21 20 22 nan nan nan nan nan nan
3 3 7 9 8 10 13 17 18 16 17 17 17 18 18 19 19 19 17 19 21 18 16 20 21 21 22 19 18 19 20 20 14 18 24 21 21 20 19 17 17 17 17 16 18 18 19 20 17 19 18 21 20 22 21 21 23 24 nan nan nan nan nan
6 1 2 4 4 5 7 12 14 15 15 15 15 16 17 18 19 18 18 16 19 18 18 19 20 20 19 20 18 18 18 19 16 14 24 24 23 20 20 19 19 18 18 17 19 18 20 20 19 20 20 21 22 24 23 23 24 25 nan nan nan nan nan
8 6 3 1 3 3 4 6 11 13 15 15 15 16 17 17 18 20 20 19 14 16 20 27 24 20 19 18 18 18 18 15 17 23 26 23 23 22 21 21 21 19 19 19 21 21 21 21 21 21 22 22 23 26 24 24 26 26 26 nan nan nan nan
9 8 5 2 3 5 7 9 11 14 14 14 16 14 14 17 19 19 17 21 26 27 30 31 27 22 19 17 19 16 17 20 23 24 24 22 23 23 22 23 22 22 20 21 22 23 23 23 23 23 25 24 26 27 26 27 26 27 26 26 26 nan nan
9 9 8 6 5 6 8 10 11 13 14 15 16 14 18 17 21 23 25 23 23 26 27 29 26 20 17 19 14 19 23 22 23 23 23 23 23 24 24 24 23 26 33 30 32 28 30 27 22 26 27 26 27 27 27 27 26 26 26 26 27 28 nan
9 10 10 9 9 9 10 10 14 16 14 16 20 23 23 28 28 25 23 20 21 23 23 25 26 19 23 18 24 26 25 23 23 24 24 25 25 26 26 28 33 35 35 35 34 34 35 33 32 28 26 27 27 27 27 26 26 26 26 27 27 28 28
12 11 11 nan 11 12 14 14 15 17 20 25 29 32 33 31 28 27 25 23 21 22 24 25 25 23 24 24 24 26 26 25 25 24 25 25 26 28 29 31 32 33 34 34 35 37 36 37 36 37 38 37 33 27 25 26 25 26 26 26 28 28 26
13 12 nan nan nan nan 14 14 nan nan 20 23 27 28 29 28 28 28 26 25 22 22 24 26 24 22 24 25 24 24 26 26 24 24 24 26 27 29 31 31 30 30 29 31 33 36 nan nan nan nan 38 37 35 35 34 29 26 27 27 27 29 28 28
nan nan nan nan nan nan nan 16 nan nan nan 24 25 25 26 29 29 28 26 nan 24 22 27 27 26 25 24 24 23 22 25 25 23 24 25 27 29 30 31 31 31 31 33 nan nan nan nan nan nan nan nan nan nan nan 36 35 34 31 30 29 30 31 29
nan nan nan nan nan nan nan nan nan 17 19 23 25 25 27 29 28 26 26 nan nan nan nan 28 27 nan 24 23 23 21 25 24 25 26 28 30 30 31 32 33 34 34 nan nan nan nan nan nan nan 32 33 34 nan nan nan nan nan nan 30 31 32 34 34
nan nan nan nan nan nan nan nan nan nan 18 20 21 24 26 28 27 nan nan nan nan nan nan 30 27 27 26 24 25 22 26 25 27 29 31 31 32 32 34 34 35 35 34 34 33 33 32 32 32 33 35 36 nan nan nan nan nan 31 33 35 37 37 37
nan nan nan nan nan nan nan nan nan nan nan nan nan 20 24 nan nan nan nan nan nan nan nan nan 30 30 nan nan 23 25 27 29 30 31 32 31 32 33 33 32 32 31 31 32 33 29 30 32 34 35 37 39 nan nan nan nan nan nan nan nan nan nan nan
nan nan nan nan nan nan nan nan nan nan nan nan nan nan nan nan nan nan nan nan nan nan nan nan nan nan nan nan 23 29 30 30 33 34 34 33 34 35 33 29 29 30 32 33 30 31 31 30 35 36 37 38 nan nan nan nan nan nan nan nan nan nan nan
nan nan nan nan nan nan nan nan nan nan nan nan nan nan nan nan nan nan nan nan nan nan nan nan nan nan nan nan 29 31 32 32 33 35 35 35 nan nan 36 39 34 33 34 nan nan nan 31 26 34 35 36 37 37 nan nan nan nan nan nan nan nan nan nan
nan nan nan nan nan nan nan nan nan nan nan nan nan nan nan nan nan nan nan nan nan nan nan nan nan nan nan 40 34 32 32 33 32 30 33 nan nan nan nan nan nan nan nan nan nan nan 35 27 34 33 35 37 nan nan nan nan nan nan nan nan nan nan nan
nan nan nan nan nan nan nan nan nan nan nan nan nan nan nan nan nan nan nan nan nan nan nan nan nan nan nan nan nan 34 33 31 nan nan 30 36 nan nan nan nan nan nan nan nan nan nan nan 40 36 36 35 37 nan nan nan nan nan nan nan nan nan nan nan
nan nan nan nan nan nan nan nan nan nan nan nan nan nan nan nan nan nan nan nan nan nan nan nan nan nan nan nan nan nan nan 34 nan nan nan 37 37 nan nan nan nan nan nan nan nan nan nan nan nan nan nan nan nan nan nan nan nan nan nan nan nan nan nan
nan nan nan nan nan nan nan nan nan nan nan nan nan nan nan nan nan nan nan nan nan nan nan nan nan nan nan nan nan nan nan nan nan nan nan nan nan nan nan nan nan nan nan nan nan nan nan nan nan nan nan nan nan nan nan nan nan nan nan nan nan nan nan
nan nan nan nan nan nan nan nan nan nan nan nan nan nan nan nan nan nan nan nan nan nan nan nan nan nan nan nan nan 48 nan nan nan nan nan nan nan nan nan nan nan nan nan nan nan nan nan nan nan nan nan nan nan nan nan nan nan nan nan nan nan nan nan
nan nan nan nan nan nan nan nan nan nan nan nan nan nan nan nan nan nan nan nan nan nan nan nan nan nan nan nan 47 nan nan nan nan nan nan nan nan nan nan nan nan nan nan nan nan nan nan nan nan nan nan nan nan nan nan nan nan nan nan nan nan nan nan
Wind_Direction
285 281 281 281 279 274 273 273 275 289 301 302 295 278 259 253 246 235 231 232 234 241 221 218 228 238 242 249 257 258 245 252 278 275 277 285 295 285 288 274 264 262 253 261 233 251 272 286 290 288 286 300 282 276 289 282 286 282 282 279 279 282 281
284 282 281 282 281 279 279 276 275 282 294 300 300 290 261 249 243 234 231 231 230 246 235 232 240 250 257 259 260 263 280 273 277 274 273 288 297 278 289 277 259 277 279 269 262 257 259 278 288 292 291 283 284 287 277 268 273 274 277 276 272 270 272
286 284 284 285 283 278 277 277 272 273 281 287 292 295 279 249 234 229 228 228 228 236 240 246 252 256 256 263 265 270 268 271 272 271 275 282 292 280 276 272 284 258 268 282 275 274 262 263 279 292 285 291 289 280 278 277 277 280 279 275 277 277 274
292 291 290 290 287 280 272 271 269 266 268 270 269 272 273 256 234 223 223 225 228 237 242 237 250 255 257 259 263 271 271 275 273 274 276 280 268 249 268 288 278 269 261 275 279 276 276 279 276 281 289 291 291 288 279 278 281 281 278 277 279 nan nan
287 286 287 288 286 280 272 265 261 259 259 259 260 259 259 254 241 225 220 219 225 234 244 245 243 253 256 259 262 265 266 277 277 278 279 274 272 283 298 294 284 255 249 257 248 274 283 280 278 280 286 288 290 282 280 275 275 nan nan nan nan nan nan
283 285 285 283 282 278 270 262 261 262 264 260 257 262 265 263 249 238 227 225 228 236 247 242 240 256 263 259 261 265 266 276 281 279 270 276 287 293 289 274 265 272 273 272 277 274 277 278 276 281 278 282 281 280 286 286 282 nan nan nan nan nan nan
282 283 282 283 282 278 270 268 267 269 271 274 272 271 271 274 265 251 242 240 240 245 257 255 251 265 266 272 270 275 264 257 259 289 288 286 285 286 271 262 269 280 275 276 275 271 280 281 281 279 279 281 281 283 284 289 288 288 nan nan nan nan nan
278 278 279 277 277 279 278 273 273 275 275 277 281 278 280 279 277 257 246 244 248 255 259 256 266 267 276 275 274 273 263 256 260 262 266 279 281 283 281 280 275 274 274 276 274 274 278 277 278 278 285 290 286 285 288 290 291 294 286 nan nan nan nan
275 268 268 271 274 281 282 282 281 283 278 274 275 279 282 281 273 262 247 240 246 257 259 256 265 278 266 269 266 258 255 245 258 283 274 276 275 280 277 268 263 266 271 273 274 274 275 276 273 278 285 292 294 291 289 290 293 289 292 nan nan nan nan
285 281 275 272 277 284 285 284 286 290 285 275 271 277 284 283 276 270 268 260 258 261 266 260 259 254 272 258 253 272 274 272 272 278 270 269 273 274 269 276 255 259 273 273 272 275 272 274 276 279 286 285 288 285 287 292 295 291 298 296 nan nan nan
286 281 276 276 279 284 286 286 285 286 283 274 264 266 273 274 271 271 262 258 251 253 250 246 247 253 256 260 254 254 257 253 256 260 266 272 272 275 261 254 265 250 272 271 274 272 275 275 275 280 281 280 264 274 285 290 286 290 292 298 290 nan nan
285 282 279 281 283 282 280 278 281 285 280 270 262 267 273 276 272 263 259 255 255 253 249 248 244 237 248 248 248 244 258 263 267 270 262 266 268 263 268 281 278 277 271 275 275 275 274 275 275 278 279 274 274 255 277 270 281 281 284 293 286 nan nan
283 281 283 284 285 281 275 275 281 283 281 273 266 267 274 280 276 268 266 261 257 255 252 253 249 242 246 254 241 237 252 259 260 257 267 265 258 268 271 261 253 257 273 278 278 277 275 275 275 278 278 276 279 271 266 268 273 281 286 291 287 nan nan
283 280 280 286 285 281 273 274 276 277 276 274 266 262 270 279 278 274 272 267 265 261 256 251 248 244 240 244 256 258 261 262 262 260 256 257 262 269 264 264 270 270 276 281 278 276 277 278 277 276 279 282 281 278 276 274 282 287 280 279 288 nan nan
285 281 276 280 281 272 266 266 270 269 273 273 266 263 272 273 273 274 271 272 274 269 267 263 254 247 242 248 252 246 251 265 262 263 259 271 268 261 263 259 272 271 279 283 279 283 280 278 282 283 280 280 271 279 280 282 280 289 287 285 nan nan nan
288 285 276 267 266 263 256 259 263 268 271 267 259 262 269 272 272 274 274 275 275 273 274 267 261 259 253 255 259 256 252 253 241 243 259 266 270 268 268 269 273 276 274 282 279 276 276 279 281 282 278 276 279 283 284 280 281 284 289 nan nan nan nan
291 282 274 253 258 260 254 253 257 261 265 258 256 262 269 267 266 274 277 278 278 273 272 267 264 265 264 260 257 260 264 260 256 252 269 275 273 272 276 279 279 278 280 280 280 274 274 277 276 273 277 276 275 283 284 283 282 nan nan nan nan nan nan
325 276 257 265 263 266 260 251 248 251 253 250 254 263 266 263 264 272 276 282 279 272 273 271 269 267 265 262 261 261 261 263 250 260 271 271 273 278 280 281 283 284 284 283 280 276 277 280 281 276 278 280 283 284 284 285 283 282 nan nan nan nan nan
343 58 205 247 270 275 261 253 245 241 237 239 257 262 264 260 262 268 273 283 283 276 274 272 257 256 262 268 270 264 257 244 248 258 269 272 278 281 281 283 285 286 285 284 280 280 278 285 281 281 283 284 286 285 286 285 280 281 nan nan nan nan nan
344 6 28 195 241 259 270 248 236 231 232 237 256 259 249 257 254 258 258 253 265 283 275 265 261 253 260 266 266 260 244 261 269 266 270 277 280 282 286 285 284 286 286 283 282 281 282 284 278 281 283 282 283 286 285 284 282 283 282 nan nan nan nan
335 340 338 298 240 233 229 225 224 226 233 248 251 252 255 254 257 257 256 257 253 249 253 258 255 253 247 238 233 249 266 267 268 268 272 277 279 281 284 284 280 279 285 283 280 283 283 285 280 283 282 280 281 284 284 282 281 281 283 285 285 nan nan
322 326 324 307 291 270 251 238 237 238 243 243 243 238 246 258 259 256 255 258 261 257 254 251 248 246 251 246 250 266 268 272 271 271 274 276 277 278 279 278 275 264 252 253 252 248 254 251 272 283 280 282 285 285 282 281 282 282 284 285 284 284 nan
303 308 309 301 285 279 280 268 251 240 241 240 230 230 245 251 254 252 256 262 259 257 256 247 245 236 250 255 263 261 264 268 270 271 273 272 272 273 272 266 255 255 257 253 253 255 256 259 253 256 273 282 284 281 279 280 282 282 283 285 286 287 287
288 292 299 nan 284 273 272 271 258 247 242 243 238 235 239 245 248 249 253 248 249 252 249 246 252 232 238 246 262 261 262 265 267 269 269 270 270 270 268 267 264 263 264 262 259 256 258 257 255 257 255 255 254 263 277 282 280 280 282 284 283 284 286
279 282 nan nan nan nan 277 276 nan nan 259 252 244 244 246 246 245 245 248 248 237 239 246 251 259 250 252 258 255 259 260 261 262 265 268 271 271 272 270 268 267 267 267 270 271 267 nan nan nan nan 260 257 256 256 256 261 274 281 280 280 281 281 282
nan nan nan nan nan nan nan 268 nan nan nan 252 249 252 248 247 243 243 247 nan 236 230 237 243 256 254 254 257 255 257 259 258 258 263 267 272 271 272 273 272 270 268 268 nan nan nan nan nan nan nan nan nan nan nan 256 257 256 259 276 280 281 283 281
nan nan nan nan nan nan nan nan nan 262 257 252 250 247 246 244 243 246 244 nan nan nan nan 233 247 nan 251 248 250 242 256 257 256 261 265 266 267 269 273 274 273 273 nan nan nan nan nan nan nan 273 272 269 nan nan nan nan nan nan 263 275 279 279 274
nan nan nan nan nan nan nan nan nan nan 262 250 242 244 246 245 237 nan nan nan nan nan nan 228 245 251 252 246 240 237 254 256 259 261 263 263 265 269 271 272 275 276 277 276 273 275 277 274 272 270 270 268 nan nan nan nan nan 263 268 270 271 272 271
nan nan nan nan nan nan nan nan nan nan nan nan nan 241 243 nan nan nan nan nan nan nan nan nan 241 249 nan nan 238 250 256 258 260 260 262 263 264 264 268 271 273 274 273 269 252 251 265 271 272 273 271 272 nan nan nan nan nan nan nan nan nan nan nan
nan nan nan nan nan nan nan nan nan nan nan nan nan nan nan nan nan nan nan nan nan nan nan nan nan nan nan nan 238 252 257 257 258 259 259 261 261 253 247 253 266 266 268 264 251 252 259 269 272 273 274 274 nan nan nan nan nan nan nan nan nan nan nan
nan nan nan nan nan nan nan nan nan nan nan nan nan nan nan nan nan nan nan nan nan nan nan nan nan nan nan nan 222 254 258 259 260 262 261 256 nan nan 249 236 240 260 262 nan nan nan 248 256 274 275 275 276 275 nan nan nan nan nan nan nan nan nan nan
nan nan nan nan nan nan nan nan nan nan nan nan nan nan nan nan nan nan nan nan nan nan nan nan nan nan nan 226 230 251 255 258 257 259 264 nan nan nan nan nan nan nan nan nan nan nan 242 251 273 271 274 274 nan nan nan nan nan nan nan nan nan nan nan
nan nan nan nan nan nan nan nan nan nan nan nan nan nan nan nan nan nan nan nan nan nan nan nan nan nan nan nan nan 241 250 255 nan nan 258 264 nan nan nan nan nan nan nan nan nan nan nan 242 262 269 270 272 nan nan nan nan nan nan nan nan nan nan nan
nan nan nan nan nan nan nan nan nan nan nan nan nan nan nan nan nan nan nan nan nan nan nan nan nan nan nan nan nan nan nan 251 nan nan nan 254 254 nan nan nan nan nan nan nan nan nan nan nan nan nan nan nan nan nan nan nan nan nan nan nan nan nan nan
nan nan nan nan nan nan nan nan nan nan nan nan nan nan nan nan nan nan nan nan nan nan nan nan nan nan nan nan nan nan nan nan nan nan nan nan nan nan nan nan nan nan nan nan nan nan nan nan nan nan nan nan nan nan nan nan nan nan nan nan nan nan nan
nan nan nan nan nan nan nan nan nan nan nan nan nan nan nan nan nan nan nan nan nan nan nan nan nan nan nan nan nan 248 nan nan nan nan nan nan nan nan nan nan nan nan nan nan nan nan nan nan nan nan nan nan nan nan nan nan nan nan nan nan nan nan nan
nan nan nan nan nan nan nan nan nan nan nan nan nan nan nan nan nan nan nan nan nan nan nan nan nan nan nan nan 258 nan nan nan nan nan nan nan nan nan nan nan nan nan nan nan nan nan nan nan nan nan nan nan nan nan nan nan nan nan nan nan nan nan nan